Location: Observatory
(52.1446°N, 0.4624°W)
Time: 09:59:54
(UTC+01:00)

ISS - Pass Details

Date: 30 June 2020
Orbit: 417 x 420 km, 51.6° (Epoch: 02 July)

Event Time Altitude Azimuth Distance (km) Brightness Sun altitude
Exits shadow 03:54:54 - 188° (S) 1,905 -0.9 -6.1°
Reaches altitude 10° 03:56:30 10° 168° (SSE) 1,490 -1.3 -6.0°
Maximum altitude 03:58:07 13° 140° (SE) 1,323 -1.3 -5.8°
Drops below altitude 10° 03:59:44 10° 111° (ESE) 1,494 -0.7 -5.7°
Sets 04:02:42 0° 82° (E) 2,362 0.9 -5.4°
